Location: Cheyres
(46.8153°N, 6.7877°E)
Time: 11:53:02
(UTC+00:00)

Gbstr 26 Del rocket - Pass Details

Date: 24 September 2021
Orbit: 492 x 1263 km, 51.8° (Epoch: 18 October)

Event Time Altitude Azimuth Distance (km) Brightness Sun altitude
Exits shadow 04:39:45 - 288° (WNW) 3,517 6.3 -8.1°
Reaches altitude 10° 04:41:21 10° 280° (W) 3,094 6.0 -7.8°
Maximum altitude 04:46:26 20° 238° (WSW) 2,281 5.4 -7.0°
Drops below altitude 10° 04:51:03 10° 194° (SSW) 2,746 6.2 -6.2°
Sets 04:54:10 0° 177° (S) 3,547 6.9 -5.7°
